EN

Hourly Weather Baltika

Today, 1 October, Thursday

Time Temperature Precipitation Wind Pressure Humidity
00:00 +11°C° 0 mm 1 mps 756 mmHg 85%
01:00 +10°C° 0 mm 1 mps 756 mmHg 86%
02:00 +10°C° 0 mm 1 mps 757 mmHg 87%
03:00 +10°C° 0 mm 1 mps 757 mmHg 87%
04:00 +9°C° 0 mm 1 mps 757 mmHg 88%
05:00 +9°C° 0 mm 1 mps 757 mmHg 88%
06:00 +9°C° 0 mm 1 mps 757 mmHg 89%
07:00 +8°C° 0 mm 0 mps 757 mmHg 89%
08:00 +11°C° 0 mm 1 mps 757 mmHg 83%
09:00 +13°C° 0 mm 1 mps 757 mmHg 77%
10:00 +14°C° 0 mm 1 mps 757 mmHg 72%
11:00 +15°C° 0 mm 1 mps 756 mmHg 68%
12:00 +16°C° 0 mm 0 mps 756 mmHg 64%
13:00 +17°C° 0 mm 0 mps 756 mmHg 60%
14:00 +17°C° 0 mm 0 mps 756 mmHg 60%
15:00 +17°C° 0 mm 0 mps 756 mmHg 60%
16:00 +17°C° 0 mm 0 mps 756 mmHg 60%
17:00 +15°C° 0 mm 0 mps 756 mmHg 65%
18:00 +13°C° 0 mm 0 mps 755 mmHg 71%
19:00 +12°C° 0 mm 0 mps 755 mmHg 76%
20:00 +11°C° 0 mm 0 mps 755 mmHg 78%
21:00 +11°C° 0 mm 0 mps 756 mmHg 79%
22:00 +10°C° 0 mm 0 mps 756 mmHg 81%
23:00 +10°C° 0 mm 0 mps 755 mmHg 82%

Tomorrow, 2 October, Friday

Time Temperature Precipitation Wind Pressure Humidity
00:00 +10°C° 0 mm 0 mps 755 mmHg 83%
01:00 +9°C° 0 mm 0 mps 755 mmHg 84%
02:00 +9°C° 0 mm 0 mps 755 mmHg 85%
03:00 +9°C° 0 mm 0 mps 755 mmHg 86%
04:00 +9°C° 0 mm 0 mps 755 mmHg 87%
05:00 +8°C° 0 mm 0 mps 755 mmHg 87%
06:00 +8°C° 0 mm 0 mps 755 mmHg 88%
07:00 +8°C° 0 mm 0 mps 755 mmHg 89%
08:00 +11°C° 0 mm 1 mps 755 mmHg 84%
09:00 +13°C° 0 mm 1 mps 755 mmHg 78%
10:00 +14°C° 0 mm 1 mps 755 mmHg 73%
11:00 +15°C° 0 mm 1 mps 755 mmHg 70%
12:00 +16°C° 0 mm 1 mps 755 mmHg 67%
13:00 +18°C° 0 mm 1 mps 754 mmHg 64%
14:00 +18°C° 0 mm 1 mps 754 mmHg 64%
15:00 +18°C° 0 mm 1 mps 754 mmHg 64%
16:00 +18°C° 0 mm 1 mps 754 mmHg 64%
17:00 +16°C° 0 mm 1 mps 754 mmHg 70%
18:00 +13°C° 0 mm 0 mps 754 mmHg 75%
19:00 +11°C° 0 mm 0 mps 754 mmHg 81%
20:00 +11°C° 0 mm 0 mps 754 mmHg 82%
21:00 +11°C° 0 mm 0 mps 754 mmHg 83%
22:00 +10°C° 0 mm 0 mps 754 mmHg 84%
23:00 +10°C° 0 mm 0 mps 753 mmHg 85%

Day after tomorrow, 3 October, Saturday

Time Temperature Precipitation Wind Pressure Humidity
00:00 +10°C° 0 mm 0 mps 753 mmHg 86%
01:00 +9°C° 0 mm 0 mps 753 mmHg 86%
02:00 +9°C° 0 mm 0 mps 753 mmHg 87%
03:00 +9°C° 0 mm 0 mps 753 mmHg 88%
04:00 +9°C° 0 mm 0 mps 753 mmHg 89%
05:00 +8°C° 0 mm 0 mps 753 mmHg 89%
06:00 +8°C° 0 mm 0 mps 753 mmHg 89%
07:00 +8°C° 0 mm 0 mps 753 mmHg 90%
08:00 +11°C° 0 mm 1 mps 753 mmHg 85%
09:00 +12°C° 0 mm 1 mps 753 mmHg 80%
10:00 +14°C° 0 mm 1 mps 753 mmHg 76%
11:00 +14°C° 0 mm 2 mps 753 mmHg 72%
12:00 +15°C° 0 mm 2 mps 753 mmHg 67%
13:00 +16°C° 0 mm 2 mps 753 mmHg 63%
14:00 +16°C° 0 mm 2 mps 753 mmHg 64%
15:00 +16°C° 0 mm 3 mps 753 mmHg 65%
16:00 +16°C° 0 mm 3 mps 753 mmHg 66%
17:00 +14°C° 0 mm 2 mps 753 mmHg 72%
18:00 +13°C° 0 mm 2 mps 753 mmHg 77%
19:00 +10°C° 0 mm 2 mps 753 mmHg 83%
20:00 +10°C° 0 mm 2 mps 753 mmHg 83%
21:00 +10°C° 0 mm 2 mps 753 mmHg 82%
22:00 +10°C° 0 mm 2 mps 754 mmHg 81%
23:00 +10°C° 0 mm 2 mps 754 mmHg 79%

4 October, Sunday

Time Temperature Precipitation Wind Pressure Humidity
00:00 +10°C° 0 mm 2 mps 754 mmHg 77%
01:00 +10°C° 0 mm 3 mps 754 mmHg 75%
02:00 +9°C° 0 mm 3 mps 754 mmHg 78%
03:00 +8°C° 0 mm 2 mps 754 mmHg 81%
04:00 +7°C° 0 mm 2 mps 754 mmHg 84%
05:00 +7°C° 0 mm 2 mps 754 mmHg 86%
06:00 +6°C° 0 mm 2 mps 754 mmHg 89%
07:00 +5°C° 0 mm 2 mps 755 mmHg 91%
08:00 +7°C° 0 mm 2 mps 755 mmHg 84%
09:00 +8°C° 0 mm 2 mps 755 mmHg 77%
10:00 +9°C° 0 mm 2 mps 755 mmHg 70%
11:00 +10°C° 0 mm 2 mps 755 mmHg 65%
12:00 +11°C° 0 mm 3 mps 755 mmHg 60%
13:00 +12°C° 0 mm 3 mps 755 mmHg 55%
14:00 +11°C° 0 mm 3 mps 755 mmHg 57%
15:00 +11°C° 0 mm 3 mps 755 mmHg 58%
16:00 +11°C° 0 mm 3 mps 755 mmHg 59%
17:00 +9°C° 0 mm 3 mps 755 mmHg 63%
18:00 +8°C° 0 mm 3 mps 755 mmHg 67%
19:00 +7°C° 0 mm 3 mps 755 mmHg 71%
20:00 +5°C° 0 mm 3 mps 755 mmHg 72%
21:00 +4°C° 0 mm 3 mps 755 mmHg 73%
22:00 +4°C° 0 mm 3 mps 755 mmHg 75%
23:00 +4°C° 0 mm 2 mps 755 mmHg 77%

5 October, Monday

Time Temperature Precipitation Wind Pressure Humidity
00:00 +4°C° 0 mm 2 mps 755 mmHg 80%
01:00 +4°C° 0 mm 2 mps 756 mmHg 83%
02:00 +5°C° 0 mm 1 mps 756 mmHg 85%
03:00 +4°C° 0 mm 1 mps 756 mmHg 86%
04:00 +4°C° 0 mm 1 mps 756 mmHg 88%
05:00 +4°C° 0 mm 1 mps 756 mmHg 89%
06:00 +4°C° 0 mm 1 mps 756 mmHg 90%
07:00 +3°C° 0 mm 0 mps 756 mmHg 91%
08:00 +6°C° 0 mm 1 mps 756 mmHg 85%
09:00 +7°C° 0 mm 1 mps 756 mmHg 79%
10:00 +9°C° 0 mm 1 mps 756 mmHg 73%
11:00 +10°C° 0 mm 1 mps 756 mmHg 69%
12:00 +11°C° 0 mm 1 mps 756 mmHg 66%
13:00 +11°C° 0 mm 1 mps 756 mmHg 62%
14:00 +11°C° 0 mm 1 mps 755 mmHg 60%
15:00 +11°C° 0 mm 1 mps 755 mmHg 59%
16:00 +11°C° 0 mm 1 mps 755 mmHg 57%
17:00 +10°C° 0 mm 1 mps 755 mmHg 60%
18:00 +9°C° 0 mm 1 mps 755 mmHg 63%
19:00 +7°C° 0 mm 1 mps 755 mmHg 66%
20:00 +6°C° 0 mm 0 mps 755 mmHg 66%
21:00 +5°C° 0 mm 0 mps 755 mmHg 66%
22:00 +5°C° 0 mm 0 mps 755 mmHg 66%
23:00 +4°C° 0 mm 0 mps 755 mmHg 67%

6 October, Tuesday

Time Temperature Precipitation Wind Pressure Humidity
00:00 +4°C° 0 mm 0 mps 755 mmHg 68%
01:00 +4°C° 0 mm 0 mps 754 mmHg 69%
02:00 +3°C° 0 mm 0 mps 754 mmHg 71%
03:00 +3°C° 0 mm 0 mps 754 mmHg 72%
04:00 +4°C° 0 mm 1 mps 754 mmHg 74%
05:00 +4°C° 0 mm 1 mps 754 mmHg 77%
06:00 +4°C° 0 mm 1 mps 754 mmHg 81%
07:00 +4°C° 0 mm 1 mps 754 mmHg 84%
08:00 +6°C° 0 mm 1 mps 754 mmHg 80%
09:00 +6°C° 0 mm 2 mps 754 mmHg 75%
10:00 +8°C° 0 mm 2 mps 754 mmHg 71%
11:00 +9°C° 0 mm 2 mps 754 mmHg 67%
12:00 +10°C° 0 mm 2 mps 754 mmHg 63%
13:00 +12°C° 0 mm 3 mps 753 mmHg 59%
14:00 +13°C° 0 mm 2 mps 753 mmHg 60%
15:00 +13°C° 0 mm 2 mps 753 mmHg 60%
16:00 +13°C° 0 mm 2 mps 753 mmHg 61%
17:00 +11°C° 0 mm 1 mps 752 mmHg 66%
18:00 +10°C° 0 mm 1 mps 752 mmHg 71%
19:00 +9°C° 0 mm 1 mps 752 mmHg 76%
20:00 +8°C° 0 mm 1 mps 752 mmHg 77%
21:00 +8°C° 0 mm 1 mps 752 mmHg 78%
22:00 +8°C° 0 mm 1 mps 752 mmHg 79%
23:00 +8°C° 0 mm 1 mps 752 mmHg 81%
Show more

We Need Your Consent

Meteoprog and our Service Providers may store and access personal data such as cookies, device identifiers or other similar technologies on your device and process such data to personalise content and ads, as well as provide social media features and to analyse the traffic.

  • Store and/or access information on your device

    Cookies, device identifiers or other information can be stored or accessed on your device for the purposes indicated above.

  • Personalised ads and content, ad and content measurement, audience insights, and products development

    Ads and content can be personalised based on a profile. More data can be added to better personalise ads and content. Ad and content performance can be measured. Insights about the audience who saw the ads and content can be derived. Such data can be used to develop or improve user’s experience, systems and software.

By clicking ‘I Agree’ you will allow the use of indicated cookies, device identifiers, web beacons or other similar technologies. Your settings can be changed in the browser on your device.

For certain purposes, legitimate interests may be relied on, rather than consent. You can read more about this in our Privacy and Cookie Policy.